User: anonymous   Login
Location: Chagrin Falls Park
(41.4139°N, 81.3865°W)
Time: 17:16:10
(UTC+00:00)
Language:

VELOX 1 - Orbit

View from above orbital plane
View from above orbital plane
View from above satellite
View from above satellite

Ground track
Ground track

The orbit data is extracted from the following two-line orbital elements,

1 40057U 14034E   21294.50220621  .00000700  00000-0  10389-3 0  9995
2 40057  98.3426  93.0253 0011085  20.9278 339.2381 14.78320343394162
Epoch (UTC): 21 October 2021 12:03:10
Eccentricity: 0.0011085
inclination: 98.3426°
perigee height: 627 km
apogee height: 642 km
right ascension of ascending node: 93.0253°
argument of perigee: 20.9278°
revolutions per day: 14.78320343
mean anomaly at epoch: 339.2381°
orbit number at epoch: 39416

The dashed part of the orbit path shows where the satellite is in the earth's shadow,  

DLR